Voltar ao catálogo

CZ-6A DEB

AtivoPO
NORAD 60865·DEBRIS·🇨🇳 China

Lançado Aug 6, 2024 de Taiyuan Satellite Launch Center

Loading…

Próximas Passagens (próximas 24 horas)

TLE

AtualizadoSource: Space-Track

Época: Sep 14, 2026, 11:07 UTC

1 60865U 24140JU  26257.46365463  .00000592  00000-0  14654-3 0  9994
2 60865  88.9754 258.5672 0086695 292.2031  66.9994 14.48532837109981

Acompanhe CZ-6A DEB em tempo real com AllMySat

Download on the App Store